[[{"header":{"parameterUnit":"m.s-1","parameterCategory":1,"la1":30.2991,"la2":30.254,"lo1":-89.0895,"lo2":-89.0444,"dx":0.0017,"dy":0.0017,"nx":28,"ny":28,"refTime":"2023-02-06T15:00:00:Z","depth":0,"parameterNumber":2,"parameterNumberName":"U-component_of_WINDS"},"data":[0,0,0,0,0,0,0,0,0,0,0,0,0,0,0,0,0,0,0,0,0,0,0,0,0,0,0,0,0,0,0,0,0,0,0,0,0,0,0,0,0,0,0,0,0,0,0,0,0,0,0,0,0,0,0,0,0,0,-4.1435,-4.1435,0,-4.1505,-4.1506,-4.1506,-4.1492,-4.149,-4.1489,-4.1488,-4.1559,-4.1562,-4.1565,0,0,0,0,0,0,0,0,0,0,0,0,0,-4.1288,-4.1291,-4.1435,-4.1435,-4.1436,-4.1505,-4.1506,-4.1507,-4.1492,-4.149,-4.1489,-4.1487,-4.1558,-4.1562,-4.1565,0,0,0,0,0,0,0,0,0,0,0,0,0,-4.1354,-4.1291,-4.1434,-4.1437,-4.1438,-4.1505,-4.1506,-4.1507,-4.1492,-4.149,-4.1488,-4.1486,-4.1557,-4.1561,-4.1566,-4.1634,0,0,-4.158,-4.1582,0,0,0,0,0,0,0,0,-4.135,-4.1359,-4.1436,-4.1437,-4.1438,-4.1487,-4.148,-4.1549,-4.1493,-4.1472,-4.1488,-4.1485,-4.1537,-4.1543,-4.156,-4.1637,-4.164,-4.1581,-4.1583,-4.1585,-4.1587,0,0,0,0,0,0,0,-4.1346,-4.1356,-4.1462,-4.1437,-4.1439,-4.1435,-4.1442,-4.1493,-4.1514,-4.1473,-4.1472,-4.1481,-4.1537,-4.1556,-4.1562,-4.1641,-4.158,-4.1585,-4.1587,-4.1589,-4.1777,-4.1779,0,0,0,0,0,0,-4.134,-4.1353,-4.146,-4.1464,-4.1389,-4.1439,-4.1447,-4.1474,-4.1514,-4.1518,-4.1483,-4.148,-4.1549,-4.1556,-4.1564,-4.1645,-4.1585,-4.159,-4.1592,-4.1774,-4.1777,-4.1779,0,0,0,0,0,0,-4.1337,-4.135,-4.1457,-4.1408,-4.1422,-4.1444,-4.1473,-4.1476,-4.1495,-4.1521,-4.1524,-4.1498,-4.1548,-4.1558,-4.1616,-4.1648,-4.1592,-4.1596,-4.1772,-4.1775,-4.1778,-4.1809,0,0,0,0,0,0,-4.1333,-4.1349,-4.1375,-4.1409,-4.1424,-4.1508,-4.1475,-4.1479,-4.1503,-4.15,-4.1536,-4.154,-4.1547,-4.161,-4.1621,-4.1653,-4.16,-4.1769,-4.1773,-4.1777,-4.1805,-4.1813,-4.1819,0,0,0,0,0,-4.1328,-4.138,-4.1376,-4.1389,-4.1457,-4.151,-4.1519,-4.1526,-4.1506,-4.1532,-4.1548,-4.1539,-4.1643,-4.1616,-4.1629,-4.1662,-4.1767,-4.1772,-4.1777,-4.1802,-4.1811,-4.1819,0,0,0,0,0,0,-4.1348,-4.1385,-4.138,-4.1446,-4.1475,-4.1507,-4.154,-4.1536,-4.1571,-4.1567,-4.1574,-4.1582,-4.1642,-4.1658,-4.1627,-4.173,-4.1702,-4.171,-4.1717,-4.1726,-4.1733,-4.1727,-4.1604,0,0,0,0,0,-4.1361,-4.1401,-4.143,-4.1485,-4.15,-4.1518,-4.1541,-4.1544,-4.1575,-4.1587,-4.1608,-4.1638,-4.1677,-4.1703,-4.174,-4.1808,-4.1815,-4.1838,-4.1845,-4.1851,-4.1857,-4.1893,-4.1903,-4.1796,-4.1796,-4.1795,0,0,-4.1386,-4.1411,-4.1436,-4.149,-4.1513,-4.1554,-4.1528,-4.1573,-4.1603,-4.1594,-4.165,-4.1667,-4.17,-4.1764,-4.1793,-4.1779,-4.1889,-4.1857,-4.1861,-4.1864,-4.1899,-4.1909,-4.1919,-4.1799,-4.1798,-4.1798,0,0,-4.1453,-4.1476,-4.1524,-4.1548,-4.1584,-4.1595,-4.1607,-4.1641,-4.1651,-4.1708,-4.1702,-4.1739,-4.1806,-4.1831,-4.1852,-4.193,-4.1922,-4.1942,-4.1978,-4.2014,-4.2022,-4.203,-4.2056,-4.2066,-4.1948,-4.1948,-4.1949,0,-4.148,-4.1541,-4.1549,-4.1595,-4.1619,-4.1613,-4.1661,-4.1684,-4.173,-4.1746,-4.1731,-4.1817,-4.1839,-4.1908,-4.1927,-4.1945,-4.1958,-4.1937,-4.2021,-4.2028,-4.2035,-4.2061,-4.2071,-4.1951,-4.195,-4.195,-4.195,0,-4.1572,-4.1615,-4.165,-4.1694,-4.1723,-4.1769,-4.1784,-4.1812,-4.1813,-4.1827,-4.1885,-4.1912,-4.1955,-4.1972,-4.1974,-4.2041,-4.2032,-4.2019,-4.199,-4.2047,-4.2071,-4.2081,-4.1953,-4.1953,-4.1952,-4.1952,0,0,-4.1652,-4.1701,-4.1714,-4.1734,-4.1773,-4.1807,-4.1854,-4.1896,-4.1919,-4.1952,-4.199,-4.2049,-4.2037,-4.2061,-4.2066,-4.2097,-4.2156,-4.2081,-4.2081,-4.2092,-4.2231,-4.2239,-4.225,-4.2152,-4.2154,-4.2156,-4.2228,0,-4.1721,-4.1803,-4.1812,-4.1885,-4.1925,-4.1921,-4.1962,-4.199,-4.2005,-4.204,-4.2056,-4.2097,-4.2079,-4.2094,-4.2125,-4.2142,-4.2184,-4.2138,-4.2188,-4.2189,-4.2177,-4.2263,-4.2272,-4.2338,-4.2237,-4.2239,-4.224,0,-4.1812,-4.1847,-4.1924,-4.1959,-4.1976,-4.2012,-4.2052,-4.2086,-4.2119,-4.2127,-4.2155,-4.2156,-4.2204,-4.2176,-4.2242,-4.221,-4.2232,-4.2244,-4.2246,-4.2249,-4.2217,-4.2267,-4.236,-4.2369,-4.2255,-4.2254,-4.2253,0,-4.186,-4.1927,-4.1982,-4.2,-4.2041,-4.2067,-4.2086,-4.2116,-4.2142,-4.2177,-4.2193,-4.2233,-4.2255,-4.2286,-4.2298,-4.2277,-4.2364,-4.2336,-4.2371,-4.2371,-4.2387,-4.2386,-4.2483,-4.2405,-4.2405,-4.2404,-4.2404,0,-4.1935,-4.1982,-4.2004,-4.2038,-4.209,-4.2101,-4.2153,-4.217,-4.2198,-4.2235,-4.2235,-4.2269,-4.2284,-4.232,-4.233,-4.2383,-4.2393,-4.2401,-4.2402,-4.24,-4.2398,-4.2412,-4.2407,-4.2407,-4.2406,-4.2406,-4.2405,0,-4.1997,-4.2014,-4.2073,-4.2108,-4.2118,-4.2155,-4.2185,-4.2218,-4.2232,-4.2279,-4.229,-4.2313,-4.2357,-4.2372,-4.2425,-4.2432,-4.2493,-4.2491,-4.2481,-4.2481,-4.2514,-4.251,-4.2622,-4.2637,-4.255,-4.2551,-4.2552,0,-4.2042,-4.2078,-4.2118,-4.2143,-4.2162,-4.2202,-4.2228,-4.2241,-4.2267,-4.2308,-4.2335,-4.2379,-4.2414,-4.2483,-4.2505,-4.2545,-4.2544,-4.258,-4.255,-4.2546,-4.2542,-4.2539,-4.2542,-4.2585,-4.2586,-4.2587,-4.2587,0,-4.2121,-4.2128,-4.2165,-4.2206,-4.2237,-4.2269,-4.23,-4.2321,-4.2338,-4.2369,-4.2413,-4.244,-4.2495,-4.2537,-4.2579,-4.2598,-4.2596,-4.2597,-4.2607,-4.2603,-4.2595,-4.2598,-4.2495,-4.2594,-4.2593,-4.2593,-4.2592,-4.2592,-4.2175,-4.2207,-4.2239,-4.2281,-4.2306,-4.2336,-4.2368,-4.2387,-4.2425,-4.247,-4.2475,-4.2523,-4.2556,-4.2611,-4.2633,-4.267,-4.266,-4.2675,-4.2678,-4.2681,-4.2682,-4.2591,-4.2678,-4.2678,-4.2678,-4.2678,-4.2678,0,-4.2252,-4.2273,-4.2312,-4.2356,-4.2389,-4.2385,-4.242,-4.2447,-4.2489,-4.252,-4.2555,-4.2606,-4.2648,-4.2673,-4.2715,-4.274,-4.274,-4.2751,-4.2748,-4.2752,-4.269,-4.2676,-4.275,-4.275,-4.275,-4.275,-4.275,-4.275,-4.2296,-4.2349,-4.236,-4.2426,-4.2447,-4.2494,-4.2514,-4.2541,-4.2566,-4.2623,-4.2658,-4.2675,-4.2703,-4.2748,-4.2786,-4.2792,-4.2807,-4.2818,-4.2824,-4.2764,-4.2757,-4.2749,-4.2737,-4.2822,-4.2822,-4.2882,-4.2883,-4.2883]},{"header":{"parameterUnit":"m.s-1","parameterCategory":1,"la1":30.2991,"la2":30.254,"lo1":-89.0895,"lo2":-89.0444,"dx":0.0017,"dy":0.0017,"nx":28,"ny":28,"refTime":"2023-02-06T15:00:00:Z","depth":0,"parameterNumber":3,"parameterNumberName":"V-component_of_WINDS"},"data":[0,0,0,0,0,0,0,0,0,0,0,0,0,0,0,0,0,0,0,0,0,0,0,0,0,0,0,0,0,0,0,0,0,0,0,0,0,0,0,0,0,0,0,0,0,0,0,0,0,0,0,0,0,0,0,0,0,0,2.8762,2.8763,0,2.8844,2.8845,2.8846,2.8885,2.8885,2.8884,2.8884,2.8966,2.8968,2.897,0,0,0,0,0,0,0,0,0,0,0,0,0,2.8638,2.864,2.8762,2.8763,2.8764,2.8844,2.8845,2.8846,2.8885,2.8885,2.8884,2.8884,2.8965,2.8968,2.8971,0,0,0,0,0,0,0,0,0,0,0,0,0,2.8703,2.864,2.8762,2.8793,2.8796,2.8844,2.8845,2.8847,2.8885,2.8885,2.8884,2.8884,2.8964,2.8968,2.8971,2.8993,0,0,2.8981,2.8983,0,0,0,0,0,0,0,0,2.8699,2.8707,2.8787,2.8791,2.8795,2.8854,2.8832,2.8896,2.8885,2.8851,2.8884,2.8884,2.8929,2.8935,2.8951,2.8997,2.9,2.8981,2.8984,2.8985,2.8986,0,0,0,0,0,0,0,2.8695,2.8704,2.8794,2.8788,2.8793,2.8803,2.8812,2.8844,2.8889,2.8854,2.8857,2.8866,2.8931,2.8947,2.8953,2.9002,2.8981,2.8984,2.8986,2.8988,2.9075,2.9075,0,0,0,0,0,0,2.8685,2.87,2.8792,2.8797,2.8746,2.8805,2.8815,2.8835,2.8889,2.8897,2.8866,2.8868,2.8942,2.8949,2.8956,2.8988,2.8985,2.8988,2.899,2.9075,2.9075,2.9075,0,0,0,0,0,0,2.8682,2.8693,2.8788,2.8749,2.8762,2.8807,2.8829,2.8837,2.8853,2.8898,2.8906,2.8875,2.8942,2.8951,2.8985,2.8992,2.899,2.8993,2.9074,2.9075,2.9075,2.9052,0,0,0,0,0,0,2.8679,2.8692,2.87,2.8749,2.8764,2.8816,2.883,2.8838,2.8859,2.8862,2.8908,2.8916,2.8942,2.898,2.8988,2.8996,2.8995,2.9074,2.9074,2.9075,2.9052,2.9051,2.905,0,0,0,0,0,2.8674,2.8689,2.87,2.8711,2.8776,2.8816,2.8825,2.8855,2.886,2.8869,2.8899,2.8915,2.8989,2.8983,2.8993,2.9002,2.9073,2.9074,2.9075,2.9052,2.9051,2.905,0,0,0,0,0,0,2.8637,2.8696,2.8709,2.874,2.8773,2.8823,2.8835,2.8853,2.8884,2.8885,2.8922,2.8932,2.8963,2.8986,2.8977,2.9028,2.9033,2.9036,2.9012,2.9012,2.9011,2.9006,2.8998,0,0,0,0,0,2.8633,2.8661,2.871,2.8733,2.8749,2.8789,2.8808,2.8829,2.8864,2.8878,2.891,2.8943,2.8975,2.8994,2.9025,2.9055,2.9067,2.9067,2.9066,2.9065,2.9067,2.9089,2.909,2.9078,2.9078,2.9078,0,0,2.8624,2.8659,2.8674,2.8727,2.8755,2.8784,2.8801,2.8829,2.8852,2.8882,2.8917,2.8942,2.8981,2.9014,2.903,2.9034,2.9074,2.9066,2.9065,2.9068,2.9089,2.9091,2.9092,2.9078,2.9078,2.9078,0,0,2.8623,2.8652,2.8676,2.8704,2.8748,2.8775,2.8781,2.8828,2.8847,2.8883,2.8907,2.8934,2.8986,2.9015,2.9036,2.905,2.9067,2.9059,2.9056,2.9076,2.9077,2.9078,2.9086,2.9088,2.9061,2.9061,2.9061,0,2.8606,2.8651,2.8685,2.8715,2.8738,2.8769,2.8795,2.882,2.8871,2.8886,2.889,2.8959,2.8988,2.903,2.9034,2.9049,2.9058,2.9054,2.9074,2.9075,2.9077,2.9085,2.9087,2.906,2.906,2.906,2.906,0,2.863,2.8661,2.8675,2.8726,2.8751,2.8777,2.8817,2.8838,2.8858,2.8885,2.8923,2.8959,2.8999,2.9011,2.9029,2.9056,2.9058,2.9067,2.9073,2.9077,2.9085,2.9088,2.9058,2.9059,2.9059,2.9059,0,0,2.8606,2.8678,2.8683,2.8708,2.876,2.8785,2.8814,2.8856,2.8875,2.8909,2.8936,2.8981,2.8992,2.9016,2.9038,2.9056,2.9069,2.9064,2.9065,2.9066,2.9105,2.9099,2.9101,2.908,2.9081,2.9081,2.9102,0,2.8614,2.8669,2.8702,2.8744,2.8775,2.8807,2.8833,2.8868,2.8895,2.8925,2.8955,2.8988,2.8997,2.9013,2.9032,2.9063,2.9077,2.9062,2.9107,2.9108,2.9098,2.9105,2.9098,2.9116,2.9105,2.9106,2.9106,0,2.8629,2.8666,2.8712,2.8764,2.8778,2.8801,2.8844,2.8872,2.8914,2.8932,2.8962,2.8985,2.9019,2.9022,2.907,2.9059,2.9079,2.9098,2.9099,2.9106,2.9108,2.9114,2.9122,2.9125,2.9111,2.9111,2.911,0,2.8611,2.8671,2.8708,2.8728,2.8789,2.8805,2.8831,2.8873,2.8897,2.8934,2.8951,2.899,2.9013,2.9043,2.9078,2.9076,2.9124,2.9128,2.9141,2.9141,2.915,2.9149,2.9164,2.916,2.916,2.916,2.916,0,2.8617,2.8644,2.8701,2.8723,2.8756,2.8795,2.8826,2.8854,2.8892,2.8921,2.895,2.8976,2.9019,2.9052,2.9078,2.9116,2.9125,2.9142,2.9149,2.9141,2.9139,2.9155,2.9156,2.9161,2.9161,2.9161,2.916,0,2.8601,2.864,2.8682,2.8738,2.8753,2.8775,2.8823,2.8846,2.8876,2.8913,2.8924,2.897,2.9011,2.9048,2.91,2.9119,2.9158,2.9165,2.9144,2.9148,2.916,2.9159,2.9187,2.9194,2.9183,2.9183,2.9183,0,2.8603,2.8625,2.8685,2.8708,2.8734,2.8769,2.8795,2.8835,2.8861,2.8912,2.893,2.8973,2.9009,2.9072,2.9111,2.9152,2.9163,2.917,2.9169,2.9161,2.9166,2.9165,2.9169,2.9169,2.9169,2.9169,2.9169,0,2.8603,2.8623,2.8659,2.8704,2.8735,2.8772,2.8809,2.8826,2.8873,2.8901,2.8944,2.8972,2.9029,2.9071,2.9118,2.9145,2.9166,2.9169,2.9175,2.9167,2.9155,2.9164,2.9145,2.9168,2.9168,2.9168,2.9168,2.9168,2.8598,2.8621,2.8668,2.8709,2.8742,2.8778,2.8804,2.8839,2.8876,2.8926,2.8947,2.8991,2.9035,2.91,2.9127,2.9163,2.9167,2.9174,2.9177,2.9178,2.9178,2.9148,2.9171,2.9171,2.9171,2.9171,2.9171,0,2.8602,2.8635,2.8672,2.8726,2.8759,2.8777,2.8821,2.8847,2.8886,2.8926,2.8963,2.9014,2.9057,2.91,2.9145,2.9166,2.9177,2.9177,2.9176,2.9183,2.917,2.9162,2.9167,2.9167,2.9167,2.9167,2.9167,2.9167,2.8608,2.8649,2.8675,2.8734,2.8766,2.8811,2.8835,2.8869,2.8901,2.8958,2.8994,2.9023,2.9065,2.9115,2.9155,2.9167,2.9183,2.9181,2.9196,2.9183,2.9183,2.9183,2.9176,2.9184,2.9184,2.9206,2.9206,2.9206]}]]